Year,Month,Day,Hour,Minute,Value (Times are PST for temperature in C)
2015,08,17,00,00,14.30
2015,08,17,00,01,14.30
2015,08,17,00,02,14.30
2015,08,17,00,03,14.30
2015,08,17,00,04,14.30
2015,08,17,00,05,14.30
2015,08,17,00,06,14.30
2015,08,17,00,07,14.30
2015,08,17,00,08,14.30
2015,08,17,00,09,14.30
2015,08,17,00,10,14.20
2015,08,17,00,11,14.20
2015,08,17,00,12,14.20
2015,08,17,00,13,14.10
2015,08,17,00,14,14.10
2015,08,17,00,15,14.00
2015,08,17,00,16,14.00
2015,08,17,00,17,13.90
2015,08,17,00,18,13.90
2015,08,17,00,19,13.90
2015,08,17,00,20,13.90
2015,08,17,00,21,13.90
2015,08,17,00,22,13.90
2015,08,17,00,23,13.90
2015,08,17,00,24,13.90
2015,08,17,00,25,13.90
2015,08,17,00,26,13.90
2015,08,17,00,27,13.80
2015,08,17,00,28,13.80
2015,08,17,00,29,13.80
2015,08,17,00,30,13.80
2015,08,17,00,31,13.80
2015,08,17,00,32,13.80
2015,08,17,00,33,13.80
2015,08,17,00,34,13.80
2015,08,17,00,35,13.70
2015,08,17,00,36,13.70
2015,08,17,00,37,13.70
2015,08,17,00,38,13.70
2015,08,17,00,39,13.70
2015,08,17,00,40,13.70
2015,08,17,00,41,13.60
2015,08,17,00,42,13.60
2015,08,17,00,43,13.60
2015,08,17,00,44,13.60
2015,08,17,00,45,13.60
2015,08,17,00,46,13.60
2015,08,17,00,47,13.50
2015,08,17,00,48,13.60
2015,08,17,00,49,13.50
2015,08,17,00,50,13.50
2015,08,17,00,51,13.50
2015,08,17,00,52,13.40
2015,08,17,00,53,13.40
2015,08,17,00,54,13.40
2015,08,17,00,55,13.30
2015,08,17,00,56,13.30
2015,08,17,00,57,13.30
2015,08,17,00,58,13.30
2015,08,17,00,59,13.30
2015,08,17,01,00,13.30
2015,08,17,01,01,13.40
2015,08,17,01,02,13.30
2015,08,17,01,03,13.30
2015,08,17,01,04,13.30
2015,08,17,01,05,13.40
2015,08,17,01,06,13.40
2015,08,17,01,07,13.40
2015,08,17,01,08,13.40
2015,08,17,01,09,13.40
2015,08,17,01,10,13.40
2015,08,17,01,11,13.40
2015,08,17,01,12,13.50
2015,08,17,01,13,13.50
2015,08,17,01,14,13.50
2015,08,17,01,15,13.50
2015,08,17,01,16,13.60
2015,08,17,01,17,13.60
2015,08,17,01,18,13.60
2015,08,17,01,19,13.60
2015,08,17,01,20,13.60
2015,08,17,01,21,13.60
2015,08,17,01,22,13.60
2015,08,17,01,23,13.60
2015,08,17,01,24,13.60
2015,08,17,01,25,13.60
2015,08,17,01,26,13.60
2015,08,17,01,27,13.60
2015,08,17,01,28,13.70
2015,08,17,01,29,13.70
2015,08,17,01,30,13.70
2015,08,17,01,31,13.70
2015,08,17,01,32,13.70
2015,08,17,01,33,13.70
2015,08,17,01,34,13.60
2015,08,17,01,35,13.60
2015,08,17,01,36,13.60
2015,08,17,01,37,13.60
2015,08,17,01,38,13.50
2015,08,17,01,39,13.50
2015,08,17,01,40,13.50
2015,08,17,01,41,13.50
2015,08,17,01,42,13.50
2015,08,17,01,43,13.50
2015,08,17,01,44,13.50
2015,08,17,01,45,13.40
2015,08,17,01,46,13.40
2015,08,17,01,47,13.30
2015,08,17,01,48,13.30
2015,08,17,01,49,13.30
2015,08,17,01,50,13.30
2015,08,17,01,51,13.20
2015,08,17,01,52,13.20
2015,08,17,01,53,13.20
2015,08,17,01,54,13.20
2015,08,17,01,55,13.10
2015,08,17,01,56,13.10
2015,08,17,01,57,13.10
2015,08,17,01,58,13.00
2015,08,17,01,59,13.00
2015,08,17,02,00,13.00
2015,08,17,02,01,13.00
2015,08,17,02,02,12.90
2015,08,17,02,03,12.90
2015,08,17,02,04,12.90
2015,08,17,02,05,12.90
2015,08,17,02,06,12.90
2015,08,17,02,07,12.90
2015,08,17,02,08,12.90
2015,08,17,02,09,12.90
2015,08,17,02,10,12.90
2015,08,17,02,11,12.90
2015,08,17,02,12,12.90
2015,08,17,02,13,12.90
2015,08,17,02,14,12.90
2015,08,17,02,15,12.90
2015,08,17,02,16,13.00
2015,08,17,02,17,13.00
2015,08,17,02,18,13.00
2015,08,17,02,19,12.90
2015,08,17,02,20,12.90
2015,08,17,02,21,12.90
2015,08,17,02,22,12.90
2015,08,17,02,23,12.90
2015,08,17,02,24,12.90
2015,08,17,02,25,12.90
2015,08,17,02,26,12.90
2015,08,17,02,27,12.80
2015,08,17,02,28,12.80
2015,08,17,02,29,12.80
2015,08,17,02,30,12.80
2015,08,17,02,31,12.80
2015,08,17,02,32,12.80
2015,08,17,02,33,12.80
2015,08,17,02,34,12.80
2015,08,17,02,35,12.70
2015,08,17,02,36,12.70
2015,08,17,02,37,12.70
2015,08,17,02,38,12.70
2015,08,17,02,39,12.70
2015,08,17,02,40,12.70
2015,08,17,02,41,12.70
2015,08,17,02,42,12.70
2015,08,17,02,43,12.60
2015,08,17,02,44,12.60
2015,08,17,02,45,12.60
2015,08,17,02,46,12.60
2015,08,17,02,47,12.60
2015,08,17,02,48,12.60
2015,08,17,02,49,12.60
2015,08,17,02,50,12.60
2015,08,17,02,51,12.60
2015,08,17,02,52,12.60
2015,08,17,02,53,12.60
2015,08,17,02,54,12.60
2015,08,17,02,55,12.60
2015,08,17,02,56,12.60
2015,08,17,02,57,12.60
2015,08,17,02,58,12.60
2015,08,17,02,59,12.60
2015,08,17,03,00,12.60
2015,08,17,03,01,12.50
2015,08,17,03,02,12.50
2015,08,17,03,03,12.50
2015,08,17,03,04,12.50
2015,08,17,03,05,12.40
2015,08,17,03,06,12.40
2015,08,17,03,07,12.40
2015,08,17,03,08,12.40
2015,08,17,03,09,12.40
2015,08,17,03,10,12.40
2015,08,17,03,11,12.40
2015,08,17,03,12,12.30
2015,08,17,03,13,12.30
2015,08,17,03,14,12.30
2015,08,17,03,15,12.30
2015,08,17,03,16,12.30
2015,08,17,03,17,12.30
2015,08,17,03,18,12.30
2015,08,17,03,19,12.30
2015,08,17,03,20,12.30
2015,08,17,03,21,12.30
2015,08,17,03,22,12.30
2015,08,17,03,23,12.30
2015,08,17,03,24,12.30
2015,08,17,03,25,12.30
2015,08,17,03,26,12.30
2015,08,17,03,27,12.30
2015,08,17,03,28,12.30
2015,08,17,03,29,12.30
2015,08,17,03,30,12.30
2015,08,17,03,31,12.20
2015,08,17,03,32,12.20
2015,08,17,03,33,12.20
2015,08,17,03,34,12.20
2015,08,17,03,35,12.20
2015,08,17,03,36,12.20
2015,08,17,03,37,12.20
2015,08,17,03,38,12.10
2015,08,17,03,39,12.10
2015,08,17,03,40,12.10
2015,08,17,03,41,12.00
2015,08,17,03,42,12.00
2015,08,17,03,43,12.00
2015,08,17,03,44,11.90
2015,08,17,03,45,11.90
2015,08,17,03,46,11.90
2015,08,17,03,47,11.80
2015,08,17,03,48,11.80
2015,08,17,03,49,11.80
2015,08,17,03,50,11.80
2015,08,17,03,51,11.70
2015,08,17,03,52,11.70
2015,08,17,03,53,11.70
2015,08,17,03,54,11.60
2015,08,17,03,55,11.60
2015,08,17,03,56,11.60
2015,08,17,03,57,11.60
2015,08,17,03,58,11.50
2015,08,17,03,59,11.50
2015,08,17,04,00,11.50
2015,08,17,04,01,11.40
2015,08,17,04,02,11.40
2015,08,17,04,03,11.40
2015,08,17,04,04,11.40
2015,08,17,04,05,11.40
2015,08,17,04,06,11.40
2015,08,17,04,07,11.30
2015,08,17,04,08,11.30
2015,08,17,04,09,11.30
2015,08,17,04,10,11.30
2015,08,17,04,11,11.30
2015,08,17,04,12,11.30
2015,08,17,04,13,11.20
2015,08,17,04,14,11.20
2015,08,17,04,15,11.20
2015,08,17,04,16,11.20
2015,08,17,04,17,11.20
2015,08,17,04,18,11.20
2015,08,17,04,19,11.20
2015,08,17,04,20,11.10
2015,08,17,04,21,11.10
2015,08,17,04,22,11.10
2015,08,17,04,23,11.10
2015,08,17,04,24,11.10
2015,08,17,04,25,11.10
2015,08,17,04,26,11.10
2015,08,17,04,27,11.10
2015,08,17,04,28,11.00
2015,08,17,04,29,11.00
2015,08,17,04,30,11.00
2015,08,17,04,31,11.00
2015,08,17,04,32,11.00
2015,08,17,04,33,11.00
2015,08,17,04,34,11.00
2015,08,17,04,35,11.00
2015,08,17,04,36,11.00
2015,08,17,04,37,11.00
2015,08,17,04,38,11.00
2015,08,17,04,39,10.90
2015,08,17,04,40,10.90
2015,08,17,04,41,10.90
2015,08,17,04,42,10.90
2015,08,17,04,43,10.90
2015,08,17,04,44,10.90
2015,08,17,04,45,10.80
2015,08,17,04,46,10.80
2015,08,17,04,47,10.80
2015,08,17,04,48,10.80
2015,08,17,04,49,10.80
2015,08,17,04,50,10.80
2015,08,17,04,51,10.80
2015,08,17,04,52,10.80
2015,08,17,04,53,10.80
2015,08,17,04,54,10.80
2015,08,17,04,55,10.70
2015,08,17,04,56,10.70
2015,08,17,04,57,10.70
2015,08,17,04,58,10.70
2015,08,17,04,59,10.70
2015,08,17,05,00,10.80
2015,08,17,05,01,10.80
2015,08,17,05,02,10.80
2015,08,17,05,03,10.80
2015,08,17,05,04,10.80
2015,08,17,05,05,10.80
2015,08,17,05,06,10.80
2015,08,17,05,07,10.80
2015,08,17,05,08,10.80
2015,08,17,05,09,10.80
2015,08,17,05,10,10.80
2015,08,17,05,11,10.80
2015,08,17,05,12,10.80
2015,08,17,05,13,10.80
2015,08,17,05,14,10.80
2015,08,17,05,15,10.80
2015,08,17,05,16,10.80
2015,08,17,05,17,10.80
2015,08,17,05,18,10.80
2015,08,17,05,19,10.80
2015,08,17,05,20,10.80
2015,08,17,05,21,10.70
2015,08,17,05,22,10.70
2015,08,17,05,23,10.70
2015,08,17,05,24,10.70
2015,08,17,05,25,10.70
2015,08,17,05,26,10.70
2015,08,17,05,27,10.70
2015,08,17,05,28,10.70
2015,08,17,05,29,10.70
2015,08,17,05,30,10.70
2015,08,17,05,31,10.70
2015,08,17,05,32,10.60
2015,08,17,05,33,10.60
2015,08,17,05,34,10.60
2015,08,17,05,35,10.60
2015,08,17,05,36,10.60
2015,08,17,05,37,10.60
2015,08,17,05,38,10.60
2015,08,17,05,39,10.60
2015,08,17,05,40,10.60
2015,08,17,05,41,10.60
2015,08,17,05,42,10.50
2015,08,17,05,43,10.50
2015,08,17,05,44,10.40
2015,08,17,05,45,10.40
2015,08,17,05,46,10.40
2015,08,17,05,47,10.40
2015,08,17,05,48,10.40
2015,08,17,05,49,10.40
2015,08,17,05,50,10.40
2015,08,17,05,51,10.40
2015,08,17,05,52,10.40
2015,08,17,05,53,10.30
2015,08,17,05,54,10.30
2015,08,17,05,55,10.30
2015,08,17,05,56,10.30
2015,08,17,05,57,10.30
2015,08,17,05,58,10.30
2015,08,17,05,59,10.40
2015,08,17,06,00,10.40
2015,08,17,06,01,10.40
2015,08,17,06,02,10.40
2015,08,17,06,03,10.40
2015,08,17,06,04,10.40
2015,08,17,06,05,10.40
2015,08,17,06,06,10.40
2015,08,17,06,07,10.40
2015,08,17,06,08,10.40
2015,08,17,06,09,10.40
2015,08,17,06,10,10.40
2015,08,17,06,11,10.40
2015,08,17,06,12,10.40
2015,08,17,06,13,10.40
2015,08,17,06,14,10.40
2015,08,17,06,15,10.40
2015,08,17,06,16,10.40
2015,08,17,06,17,10.40
2015,08,17,06,18,10.40
2015,08,17,06,19,10.40
2015,08,17,06,20,10.40
2015,08,17,06,21,10.40
2015,08,17,06,22,10.40
2015,08,17,06,23,10.40
2015,08,17,06,24,10.40
2015,08,17,06,25,10.40
2015,08,17,06,26,10.40
2015,08,17,06,27,10.40
2015,08,17,06,28,10.40
2015,08,17,06,29,10.50
2015,08,17,06,30,10.50
2015,08,17,06,31,10.50
2015,08,17,06,32,10.50
2015,08,17,06,33,10.50
2015,08,17,06,34,10.50
2015,08,17,06,35,10.50
2015,08,17,06,36,10.50
2015,08,17,06,37,10.50
2015,08,17,06,38,10.50
2015,08,17,06,39,10.60
2015,08,17,06,40,10.60
2015,08,17,06,41,10.60
2015,08,17,06,42,10.60
2015,08,17,06,43,10.60
2015,08,17,06,44,10.60
2015,08,17,06,45,10.70
2015,08,17,06,46,10.70
2015,08,17,06,47,10.70
2015,08,17,06,48,10.70
2015,08,17,06,49,10.70
2015,08,17,06,50,10.70
2015,08,17,06,51,10.70
2015,08,17,06,52,10.70
2015,08,17,06,53,10.70
2015,08,17,06,54,10.70
2015,08,17,06,55,10.80
2015,08,17,06,56,10.80
2015,08,17,06,57,10.80
2015,08,17,06,58,10.80
2015,08,17,06,59,10.80
2015,08,17,07,00,10.80
2015,08,17,07,01,10.80
2015,08,17,07,02,10.90
2015,08,17,07,03,10.90
2015,08,17,07,04,11.00
2015,08,17,07,05,11.00
2015,08,17,07,06,11.10
2015,08,17,07,07,11.20
2015,08,17,07,08,11.20
2015,08,17,07,09,11.30
2015,08,17,07,10,11.40
2015,08,17,07,11,11.40
2015,08,17,07,12,11.50
2015,08,17,07,13,11.50
2015,08,17,07,14,11.60
2015,08,17,07,15,11.60
2015,08,17,07,16,11.70
2015,08,17,07,17,11.70
2015,08,17,07,18,11.80
2015,08,17,07,19,11.90
2015,08,17,07,20,11.90
2015,08,17,07,21,12.00
2015,08,17,07,22,12.10
2015,08,17,07,23,12.20
2015,08,17,07,24,12.20
2015,08,17,07,25,12.30
2015,08,17,07,26,12.30
2015,08,17,07,27,12.40
2015,08,17,07,28,12.50
2015,08,17,07,29,12.60
2015,08,17,07,30,12.70
2015,08,17,07,31,12.70
2015,08,17,07,32,12.80
2015,08,17,07,33,12.90
2015,08,17,07,34,13.00
2015,08,17,07,35,13.10
2015,08,17,07,36,13.10
2015,08,17,07,37,13.20
2015,08,17,07,38,13.30
2015,08,17,07,39,13.40
2015,08,17,07,40,13.50
2015,08,17,07,41,13.60
2015,08,17,07,42,13.70
2015,08,17,07,43,13.80
2015,08,17,07,44,13.90
2015,08,17,07,45,14.00
2015,08,17,07,46,14.10
2015,08,17,07,47,14.20
2015,08,17,07,48,14.30
2015,08,17,07,49,14.30
2015,08,17,07,50,14.40
2015,08,17,07,51,14.50
2015,08,17,07,52,14.60
2015,08,17,07,53,14.60
2015,08,17,07,54,14.70
2015,08,17,07,55,14.80
2015,08,17,07,56,14.90
2015,08,17,07,57,15.00
2015,08,17,07,58,15.10
2015,08,17,07,59,15.20
2015,08,17,08,00,15.30
2015,08,17,08,01,15.40
2015,08,17,08,02,15.50
2015,08,17,08,03,15.60
2015,08,17,08,04,15.70
2015,08,17,08,05,15.80
2015,08,17,08,06,15.80
2015,08,17,08,07,15.90
2015,08,17,08,08,15.90
2015,08,17,08,09,16.00
2015,08,17,08,10,16.00
2015,08,17,08,11,16.10
2015,08,17,08,12,16.10
2015,08,17,08,13,16.10
2015,08,17,08,14,16.10
2015,08,17,08,15,16.10
2015,08,17,08,16,16.20
2015,08,17,08,17,16.30
2015,08,17,08,18,16.30
2015,08,17,08,19,16.30
2015,08,17,08,20,16.40
2015,08,17,08,21,16.40
2015,08,17,08,22,16.50
2015,08,17,08,23,16.60
2015,08,17,08,24,16.60
2015,08,17,08,25,16.60
2015,08,17,08,26,16.70
2015,08,17,08,27,16.70
2015,08,17,08,28,16.80
2015,08,17,08,29,16.90
2015,08,17,08,30,17.00
2015,08,17,08,31,17.00
2015,08,17,08,32,17.10
2015,08,17,08,33,17.10
2015,08,17,08,34,17.10
2015,08,17,08,35,17.10
2015,08,17,08,36,17.10
2015,08,17,08,37,17.20
2015,08,17,08,38,17.20
2015,08,17,08,39,17.20
2015,08,17,08,40,17.30
2015,08,17,08,41,17.30
2015,08,17,08,42,17.30
2015,08,17,08,43,17.40
2015,08,17,08,44,17.40
2015,08,17,08,45,17.50
2015,08,17,08,46,17.50
2015,08,17,08,47,17.50
2015,08,17,08,48,17.60
2015,08,17,08,49,17.60
2015,08,17,08,50,17.50
2015,08,17,08,51,17.50
2015,08,17,08,52,17.40
2015,08,17,08,53,17.40
2015,08,17,08,54,17.40
2015,08,17,08,55,17.40
2015,08,17,08,56,17.50
2015,08,17,08,57,17.60
2015,08,17,08,58,17.60
2015,08,17,08,59,17.70
2015,08,17,09,00,17.70
2015,08,17,09,01,17.80
2015,08,17,09,02,17.90
2015,08,17,09,03,17.90
2015,08,17,09,04,17.90
2015,08,17,09,05,18.00
2015,08,17,09,06,18.00
2015,08,17,09,07,18.10
2015,08,17,09,08,18.10
2015,08,17,09,09,18.10
2015,08,17,09,10,18.10
2015,08,17,09,11,18.10
2015,08,17,09,12,18.10
2015,08,17,09,13,18.20
2015,08,17,09,14,18.20
2015,08,17,09,15,18.20
2015,08,17,09,16,18.20
2015,08,17,09,17,18.30
2015,08,17,09,18,18.40
2015,08,17,09,19,18.40
2015,08,17,09,20,18.40
2015,08,17,09,21,18.40
2015,08,17,09,22,18.40
2015,08,17,09,23,18.50
2015,08,17,09,24,18.60
2015,08,17,09,25,18.60
2015,08,17,09,26,18.70
2015,08,17,09,27,18.70
2015,08,17,09,28,18.70
2015,08,17,09,29,18.70
2015,08,17,09,30,18.70
2015,08,17,09,31,18.70
2015,08,17,09,32,18.70
2015,08,17,09,33,18.80
2015,08,17,09,34,18.80
2015,08,17,09,35,18.70
2015,08,17,09,36,18.70
2015,08,17,09,37,18.70
2015,08,17,09,38,18.70
2015,08,17,09,39,18.60
2015,08,17,09,40,18.50
2015,08,17,09,41,18.50
2015,08,17,09,42,18.40
2015,08,17,09,43,18.40
2015,08,17,09,44,18.40
2015,08,17,09,45,18.40
2015,08,17,09,46,18.40
2015,08,17,09,47,18.50
2015,08,17,09,48,18.50
2015,08,17,09,49,18.60
2015,08,17,09,50,18.60
2015,08,17,09,51,18.50
2015,08,17,09,52,18.60
2015,08,17,09,53,18.60
2015,08,17,09,54,18.60
2015,08,17,09,55,18.70
2015,08,17,09,56,18.70
2015,08,17,09,57,18.70
2015,08,17,09,58,18.60
2015,08,17,09,59,18.60
2015,08,17,10,00,18.60
2015,08,17,10,01,18.70
2015,08,17,10,02,18.70
2015,08,17,10,03,18.70
2015,08,17,10,04,18.70
2015,08,17,10,05,18.80
2015,08,17,10,06,18.80
2015,08,17,10,07,18.80
2015,08,17,10,08,18.80
2015,08,17,10,09,18.70
2015,08,17,10,10,18.70
2015,08,17,10,11,18.70
2015,08,17,10,12,18.80
2015,08,17,10,13,18.80
2015,08,17,10,14,18.90
2015,08,17,10,15,18.90
2015,08,17,10,16,18.90
2015,08,17,10,17,18.90
2015,08,17,10,18,18.90
2015,08,17,10,19,18.90
2015,08,17,10,20,18.90
2015,08,17,10,21,18.90
2015,08,17,10,22,18.90
2015,08,17,10,23,18.90
2015,08,17,10,24,18.90
2015,08,17,10,25,18.80
2015,08,17,10,26,18.80
2015,08,17,10,27,18.80
2015,08,17,10,28,18.80
2015,08,17,10,29,18.80
2015,08,17,10,30,18.80
2015,08,17,10,31,18.80
2015,08,17,10,32,18.90
2015,08,17,10,33,18.90
2015,08,17,10,34,19.00
2015,08,17,10,35,19.00
2015,08,17,10,36,19.00
2015,08,17,10,37,19.10
2015,08,17,10,38,19.10
2015,08,17,10,39,19.20
2015,08,17,10,40,19.20
2015,08,17,10,41,19.30
2015,08,17,10,42,19.30
2015,08,17,10,43,19.30
2015,08,17,10,44,19.30
2015,08,17,10,45,19.20
2015,08,17,10,46,19.10
2015,08,17,10,47,19.10
2015,08,17,10,48,19.10
2015,08,17,10,49,19.10
2015,08,17,10,50,19.20
2015,08,17,10,51,19.20
2015,08,17,10,52,19.20
2015,08,17,10,53,19.20
2015,08,17,10,54,19.20
2015,08,17,10,55,19.20
2015,08,17,10,56,19.10
2015,08,17,10,57,19.10
2015,08,17,10,58,19.10
2015,08,17,10,59,19.20
2015,08,17,11,00,19.20
2015,08,17,11,01,19.30
2015,08,17,11,02,19.20
2015,08,17,11,03,19.00
2015,08,17,11,04,18.90
2015,08,17,11,05,18.80
2015,08,17,11,06,18.80
2015,08,17,11,07,18.90
2015,08,17,11,08,18.90
2015,08,17,11,09,19.00
2015,08,17,11,10,19.10
2015,08,17,11,11,19.20
2015,08,17,11,12,19.20
2015,08,17,11,13,19.20
2015,08,17,11,14,19.20
2015,08,17,11,15,19.30
2015,08,17,11,16,19.30
2015,08,17,11,17,19.40
2015,08,17,11,18,19.40
2015,08,17,11,19,19.40
2015,08,17,11,20,19.50
2015,08,17,11,21,19.50
2015,08,17,11,22,19.50
2015,08,17,11,23,19.50
2015,08,17,11,24,19.50
2015,08,17,11,25,19.50
2015,08,17,11,26,19.50
2015,08,17,11,27,19.50
2015,08,17,11,28,19.50
2015,08,17,11,29,19.40
2015,08,17,11,30,19.40
2015,08,17,11,31,19.40
2015,08,17,11,32,19.30
2015,08,17,11,33,19.30
2015,08,17,11,34,19.20
2015,08,17,11,35,19.20
2015,08,17,11,36,19.10
2015,08,17,11,37,19.10
2015,08,17,11,38,19.10
2015,08,17,11,39,19.10
2015,08,17,11,40,19.20
2015,08,17,11,41,19.20
2015,08,17,11,42,19.20
2015,08,17,11,43,19.20
2015,08,17,11,44,19.20
2015,08,17,11,45,19.20
2015,08,17,11,46,19.20
2015,08,17,11,47,19.30
2015,08,17,11,48,19.30
2015,08,17,11,49,19.40
2015,08,17,11,50,19.40
2015,08,17,11,51,19.40
2015,08,17,11,52,19.50
2015,08,17,11,53,19.40
2015,08,17,11,54,19.40
2015,08,17,11,55,19.30
2015,08,17,11,56,19.20
2015,08,17,11,57,19.10
2015,08,17,11,58,19.00
2015,08,17,11,59,18.90
2015,08,17,12,00,18.80
2015,08,17,12,01,18.80
2015,08,17,12,02,18.80
2015,08,17,12,03,18.80
2015,08,17,12,04,18.90
2015,08,17,12,05,19.00
2015,08,17,12,06,19.10
2015,08,17,12,07,19.20
2015,08,17,12,08,19.30
2015,08,17,12,09,19.30
2015,08,17,12,10,19.30
2015,08,17,12,11,19.30
2015,08,17,12,12,19.30
2015,08,17,12,13,19.30
2015,08,17,12,14,19.40
2015,08,17,12,15,19.50
2015,08,17,12,16,19.60
2015,08,17,12,17,19.60
2015,08,17,12,18,19.70
2015,08,17,12,19,19.70
2015,08,17,12,20,19.80
2015,08,17,12,21,19.90
2015,08,17,12,22,20.00
2015,08,17,12,23,19.90
2015,08,17,12,24,19.90
2015,08,17,12,25,19.80
2015,08,17,12,26,19.80
2015,08,17,12,27,19.70
2015,08,17,12,28,19.80
2015,08,17,12,29,19.80
2015,08,17,12,30,19.80
2015,08,17,12,31,19.80
2015,08,17,12,32,19.80
2015,08,17,12,33,19.90
2015,08,17,12,34,19.90
2015,08,17,12,35,20.00
2015,08,17,12,36,20.10
2015,08,17,12,37,20.20
2015,08,17,12,38,20.30
2015,08,17,12,39,20.40
2015,08,17,12,40,20.50
2015,08,17,12,41,20.60
2015,08,17,12,42,20.70
2015,08,17,12,43,20.80
2015,08,17,12,44,20.80
2015,08,17,12,45,20.80
2015,08,17,12,46,20.70
2015,08,17,12,47,20.70
2015,08,17,12,48,20.60
2015,08,17,12,49,20.60
2015,08,17,12,50,20.60
2015,08,17,12,51,20.70
2015,08,17,12,52,20.70
2015,08,17,12,53,20.70
2015,08,17,12,54,20.70
2015,08,17,12,55,20.80
2015,08,17,12,56,20.80
2015,08,17,12,57,20.80
2015,08,17,12,58,20.80
2015,08,17,12,59,20.70
2015,08,17,13,00,20.70
2015,08,17,13,01,20.70
2015,08,17,13,02,20.70
2015,08,17,13,03,20.70
2015,08,17,13,04,20.70
2015,08,17,13,05,20.70
2015,08,17,13,06,20.70
2015,08,17,13,07,20.80
2015,08,17,13,08,20.80
2015,08,17,13,09,21.00
2015,08,17,13,10,21.00
2015,08,17,13,11,21.00
2015,08,17,13,12,21.00
2015,08,17,13,13,20.90
2015,08,17,13,14,20.80
2015,08,17,13,15,20.80
2015,08,17,13,16,20.80
2015,08,17,13,17,20.80
2015,08,17,13,18,20.90
2015,08,17,13,19,21.00
2015,08,17,13,20,21.10
2015,08,17,13,21,21.00
2015,08,17,13,22,21.00
2015,08,17,13,23,20.90
2015,08,17,13,24,20.90
2015,08,17,13,25,20.80
2015,08,17,13,26,20.90
2015,08,17,13,27,21.00
2015,08,17,13,28,21.10
2015,08,17,13,29,21.20
2015,08,17,13,30,21.30
2015,08,17,13,31,21.40
2015,08,17,13,32,21.50
2015,08,17,13,33,21.60
2015,08,17,13,34,21.60
2015,08,17,13,35,21.60
2015,08,17,13,36,21.60
2015,08,17,13,37,21.70
2015,08,17,13,38,21.70
2015,08,17,13,39,21.70
2015,08,17,13,40,21.70
2015,08,17,13,41,21.70
2015,08,17,13,42,21.70
2015,08,17,13,43,21.70
2015,08,17,13,44,21.70
2015,08,17,13,45,21.70
2015,08,17,13,46,21.70
2015,08,17,13,47,21.70
2015,08,17,13,48,21.60
2015,08,17,13,49,21.60
2015,08,17,13,50,21.60
2015,08,17,13,51,21.50
2015,08,17,13,52,21.60
2015,08,17,13,53,21.70
2015,08,17,13,54,21.80
2015,08,17,13,55,21.90
2015,08,17,13,56,21.90
2015,08,17,13,57,21.90
2015,08,17,13,58,21.90
2015,08,17,13,59,22.00
2015,08,17,14,00,22.00
2015,08,17,14,01,22.00
2015,08,17,14,02,22.10
2015,08,17,14,03,22.10
2015,08,17,14,04,22.20
2015,08,17,14,05,22.20
2015,08,17,14,06,22.20
2015,08,17,14,07,22.20
2015,08,17,14,08,22.20
2015,08,17,14,09,22.30
2015,08,17,14,10,22.40
2015,08,17,14,11,22.50
2015,08,17,14,12,22.50
2015,08,17,14,13,22.60
2015,08,17,14,14,22.70
2015,08,17,14,15,22.70
2015,08,17,14,16,22.70
2015,08,17,14,17,22.80
2015,08,17,14,18,22.80
2015,08,17,14,19,22.80
2015,08,17,14,20,22.80
2015,08,17,14,21,22.70
2015,08,17,14,22,22.60
2015,08,17,14,23,22.70
2015,08,17,14,24,22.70
2015,08,17,14,25,22.70
2015,08,17,14,26,22.80
2015,08,17,14,27,22.80
2015,08,17,14,28,22.80
2015,08,17,14,29,22.70
2015,08,17,14,30,22.70
2015,08,17,14,31,22.70
2015,08,17,14,32,22.80
2015,08,17,14,33,22.80
2015,08,17,14,34,22.80
2015,08,17,14,35,22.80
2015,08,17,14,36,22.80
2015,08,17,14,37,22.80
2015,08,17,14,38,22.80
2015,08,17,14,39,22.80
2015,08,17,14,40,22.90
2015,08,17,14,41,22.90
2015,08,17,14,42,22.90
2015,08,17,14,43,23.00
2015,08,17,14,44,23.10
2015,08,17,14,45,23.10
2015,08,17,14,46,23.10
2015,08,17,14,47,23.10
2015,08,17,14,48,23.20
2015,08,17,14,49,23.20
2015,08,17,14,50,23.30
2015,08,17,14,51,23.30
2015,08,17,14,52,23.40
2015,08,17,14,53,23.50
2015,08,17,14,54,23.50
2015,08,17,14,55,23.60
2015,08,17,14,56,23.50
2015,08,17,14,57,23.50
2015,08,17,14,58,23.40
2015,08,17,14,59,23.50
2015,08,17,15,00,23.50
2015,08,17,15,01,23.60
2015,08,17,15,02,23.60
2015,08,17,15,03,23.60
2015,08,17,15,04,23.70
2015,08,17,15,05,23.80
2015,08,17,15,06,23.80
2015,08,17,15,07,23.80
2015,08,17,15,08,23.70
2015,08,17,15,09,23.60
2015,08,17,15,10,23.50
2015,08,17,15,11,23.50
2015,08,17,15,12,23.40
2015,08,17,15,13,23.40
2015,08,17,15,14,23.40
2015,08,17,15,15,23.40
2015,08,17,15,16,23.40
2015,08,17,15,17,23.50
2015,08,17,15,18,23.50
2015,08,17,15,19,23.50
2015,08,17,15,20,23.60
2015,08,17,15,21,23.70
2015,08,17,15,22,23.80
2015,08,17,15,23,23.80
2015,08,17,15,24,23.90
2015,08,17,15,25,23.90
2015,08,17,15,26,23.90
2015,08,17,15,27,23.90
2015,08,17,15,28,23.90
2015,08,17,15,29,23.90
2015,08,17,15,30,24.00
2015,08,17,15,31,24.00
2015,08,17,15,32,23.90
2015,08,17,15,33,24.00
2015,08,17,15,34,24.00
2015,08,17,15,35,24.00
2015,08,17,15,36,24.10
2015,08,17,15,37,24.00
2015,08,17,15,38,23.90
2015,08,17,15,39,23.90
2015,08,17,15,40,23.80
2015,08,17,15,41,23.80
2015,08,17,15,42,23.90
2015,08,17,15,43,23.90
2015,08,17,15,44,23.90
2015,08,17,15,45,23.80
2015,08,17,15,46,23.80
2015,08,17,15,47,23.80
2015,08,17,15,48,23.80
2015,08,17,15,49,23.80
2015,08,17,15,50,23.90
2015,08,17,15,51,23.90
2015,08,17,15,52,24.00
2015,08,17,15,53,24.00
2015,08,17,15,54,24.10
2015,08,17,15,55,24.20
2015,08,17,15,56,24.20
2015,08,17,15,57,24.30
2015,08,17,15,58,24.30
2015,08,17,15,59,24.20
2015,08,17,16,00,24.30
2015,08,17,16,01,24.30
2015,08,17,16,02,24.40
2015,08,17,16,03,24.50
2015,08,17,16,04,24.50
2015,08,17,16,05,24.50
2015,08,17,16,06,24.60
2015,08,17,16,07,24.70
2015,08,17,16,08,24.80
2015,08,17,16,09,24.80
2015,08,17,16,10,24.70
2015,08,17,16,11,24.60
2015,08,17,16,12,24.60
2015,08,17,16,13,24.50
2015,08,17,16,14,24.50
2015,08,17,16,15,24.40
2015,08,17,16,16,24.50
2015,08,17,16,17,24.60
2015,08,17,16,18,24.60
2015,08,17,16,19,24.70
2015,08,17,16,20,24.70
2015,08,17,16,21,24.70
2015,08,17,16,22,24.70
2015,08,17,16,23,24.80
2015,08,17,16,24,24.80
2015,08,17,16,25,24.80
2015,08,17,16,26,24.80
2015,08,17,16,27,24.90
2015,08,17,16,28,24.90
2015,08,17,16,29,24.90
2015,08,17,16,30,25.00
2015,08,17,16,31,25.00
2015,08,17,16,32,25.00
2015,08,17,16,33,25.00
2015,08,17,16,34,25.00
2015,08,17,16,35,25.00
2015,08,17,16,36,25.10
2015,08,17,16,37,25.10
2015,08,17,16,38,25.20
2015,08,17,16,39,25.20
2015,08,17,16,40,25.20
2015,08,17,16,41,25.20
2015,08,17,16,42,25.20
2015,08,17,16,43,25.20
2015,08,17,16,44,25.10
2015,08,17,16,45,25.10
2015,08,17,16,46,25.10
2015,08,17,16,47,25.10
2015,08,17,16,48,25.10
2015,08,17,16,49,25.10
2015,08,17,16,50,25.10
2015,08,17,16,51,25.10
2015,08,17,16,52,25.10
2015,08,17,16,53,25.10
2015,08,17,16,54,25.10
2015,08,17,16,55,25.00
2015,08,17,16,56,25.00
2015,08,17,16,57,25.00
2015,08,17,16,58,25.00
2015,08,17,16,59,25.00
2015,08,17,17,00,25.00
2015,08,17,17,01,25.10
2015,08,17,17,02,25.10
2015,08,17,17,03,25.10
2015,08,17,17,04,25.10
2015,08,17,17,05,25.10
2015,08,17,17,06,25.10
2015,08,17,17,07,25.20
2015,08,17,17,08,25.20
2015,08,17,17,09,25.30
2015,08,17,17,10,25.30
2015,08,17,17,11,25.30
2015,08,17,17,12,25.30
2015,08,17,17,13,25.30
2015,08,17,17,14,25.30
2015,08,17,17,15,25.30
2015,08,17,17,16,25.30
2015,08,17,17,17,25.30
2015,08,17,17,18,25.30
2015,08,17,17,19,25.30